Terminal Aerodrome Forecast
Issued by NWS Detroit/Pontiac, MI

Home | Current Version | Previous Version | Text Only | Print | Product List | Glossary On
Versions: 1 2 3 4 5 6 7 8 9 10 11 12 13 14 15
000
FTUS43 KDTX 290522
TAFFNT
TAF
KFNT 290522Z 2906/3006 16010KT P6SM OVC100
     FM290900 16013G20KT P6SM SCT045 OVC080
     FM291100 17014KT 2SM -SNPL BKN028 OVC040
     FM291400 21010KT 1 1/2SM -SN BR BKN008 OVC018
     FM291900 30014G25KT 3SM -SHSN BKN012 OVC025
     FM300100 31018G30KT 6SM -SN BKN025 OVC040=

USA.gov is the U.S. government's official web portal to all federal, state and local government web resources and services.